Regional Weather Roundup
Issued by NWS

Home | Current Version | Previous Version | Graphics & Text | Print | Product List | Glossary On
Versions: 1 2 3 4 5 6 7 8 9 10 11 12 13 14 15 16 17 18 19 20 21 22 23 24 25 26 27 28 29 30 31 32 33 34 35 36 37 38 39 40 41 42 43 44 45 46 47 48 49 50
810
ASUS43 KFSD 220710
RWRSD

WEATHER ROUNDUP FOR SOUTH DAKOTA
NATIONAL WEATHER SERVICE SIOUX FALLS SD
100 AM CST SUN JAN 22 2017

NOTE: "FAIR" INDICATES FEW OR NO CLOUDS BELOW 12,000 FEET WITH NO
SIGNIFICANT WEATHER AND/OR OBSTRUCTIONS TO VISIBILITY.


SDZ001>005-009-010-012>017-220800-
NORTHWEST AND NORTH CENTRAL SOUTH DAKOTA

CITY           SKY/WX    TMP DP  RH WIND       PRES   REMARKS
BUFFALO          N/A     20  17  88 W14       29.57R WCI   7
FAITH            N/A     22  21  96 W6        29.64R WCI  14
MOBRIDGE       CLOUDY    18  13  80 NW6       29.61S WCI  10
$$

SDZ012>016-024>037-041>051-057-063-072>074-220800-
SOUTHWEST AND SOUTH CENTRAL SOUTH DAKOTA

CITY           SKY/WX    TMP DP  RH WIND       PRES   REMARKS
RAPID CTY ARPT CLOUDY    27  21  78 NW9       29.67R WCI  18
PIERRE         CLOUDY    21  20  96 W5        29.64R WCI  15
CUSTER         CLOUDY    25  21  85 CALM      29.64R
ELLSWORTH AFB  CLOUDY    25  21  86 W6        29.66R WCI  18
PHILIP         CLOUDY    23  21  92 W5        29.66R WCI  17
PINE RIDGE     CLEAR     19  17  92 CALM      29.68R
SPEARFISH      FAIR      28  19  69 W6        29.66S WCI  22
WINNER         FAIR      26  24  92 W9        29.64R WCI  17
$$

SDZ004>011-016>023-039-040-220800-
NORTHEAST SOUTH DAKOTA

CITY           SKY/WX    TMP DP  RH WIND       PRES   REMARKS
ABERDEEN       CLOUDY    32  27  81 NW7       29.62R WCI  26
WATERTOWN      CLOUDY    31  29  92 NW7       29.58R WCI  24
BROOKINGS      CLOUDY    31  30  96 NW7       29.58R WCI  24
SISSETON         N/A     33  33 100 NW3       29.58R
$$

SDZ017-020-022-023-036>040-048>070-220800-
SOUTHEAST SOUTH DAKOTA

CITY           SKY/WX    TMP DP  RH WIND       PRES   REMARKS
SIOUX FALLS    CLOUDY    32  30  92 NW6       29.60R WCI  26
HURON          CLOUDY    31  29  92 NW7       29.63R WCI  24
CHAMBERLAIN    CLEAR     26  25  99 W6        29.65R WCI  19
MITCHELL       CLOUDY    32  29  88 NW13      29.64R WCI  22
YANKTON        CLOUDY    30  27  86 NW15      29.62S WCI  19
$$

ABBREVIATIONS USED IN REMARKS
   TC - TEMPERATURE IN CELSIUS
  WCI - WIND CHILL INDEX
   HX - HEAT INDEX
  VSB - VISIBILITY





USA.gov is the U.S. government's official web portal to all federal, state and local government web resources and services.